This is the latest recevied weather packets stored in our database for station/object KV9E. If no packets are shown the sender has not sent any weather packets the latest 10 day(s).
| Time | Temp. | Humidity | Pressure | Rain* | Wind** | Luminosity | Snow |
|---|---|---|---|---|---|---|---|
| 1787834934 | 18.33° C | 99% | 1016.4 hPa | 0 mm | - | 29 W/m² | - |
| 1787834633 | 18.33° C | 99% | 1016.7 hPa | 0 mm | - | 33 W/m² | - |
| 1787834328 | 17.78° C | 99% | 1016.7 hPa | 0 mm | - | 37 W/m² | - |
| 1787834024 | 17.78° C | 99% | 1016.6 hPa | 0 mm | - | 29 W/m² | - |
| 1787833718 | 17.78° C | 99% | 1016.2 hPa | 0 mm | - | 26 W/m² | - |
| 1787833414 | 17.78° C | 99% | 1016.1 hPa | 0 mm | - | 24 W/m² | - |
| 1787833110 | 17.22° C | 99% | 1016.1 hPa | 0 mm | - | 23 W/m² | - |
| 1787832805 | 17.22° C | 99% | 1016.1 hPa | 0 mm | - | 22 W/m² | - |
| 1787832500 | 17.22° C | 99% | 1015.9 hPa | 0 mm | - | 21 W/m² | - |
| 1787832199 | 17.22° C | 99% | 1016.1 hPa | 0 mm | - | 18 W/m² | - |
| 1787831897 | 17.22° C | 99% | 1015.9 hPa | 0 mm | - | 19 W/m² | - |
| 1787831593 | 17.78° C | 99% | 1015.9 hPa | 0 mm | - | 20 W/m² | - |
| 1787831292 | 17.22° C | 99% | 1015.9 hPa | 0 mm | - | 19 W/m² | - |
| 1787830988 | 17.22° C | 99% | 1015.9 hPa | 0 mm | - | 17 W/m² | - |
| 1787830682 | 17.22° C | 99% | 1015.7 hPa | 0 mm | - | 15 W/m² | - |
| 1787830380 | 17.22° C | 99% | 1015.7 hPa | 0 mm | - | 10 W/m² | - |
| 1787830075 | 17.22° C | 99% | 1015.8 hPa | 0 mm | - | 8 W/m² | - |
| 1787829775 | 17.22° C | 99% | 1015.8 hPa | 0 mm | - | 5 W/m² | - |
| 1787829470 | 17.22° C | 99% | 1015.5 hPa | 0 mm | - | 3 W/m² | - |
| 1787829166 | 17.22° C | 99% | 1015.2 hPa | 0 mm | - | 2 W/m² | - |
| 1787828861 | 17.22° C | 99% | 1015.4 hPa | 0 mm | - | 1 W/m² | - |
| 1787828564 | 17.78° C | 99% | 1015.5 hPa | 0 mm | - | 0 W/m² | - |
| 1787828257 | 17.78° C | 99% | 1015.4 hPa | 0 mm | - | 0 W/m² | - |
| 1787827956 | 17.22° C | 99% | 1015.5 hPa | 0 mm | - | 0 W/m² | - |
| 1787827650 | 17.22° C | 99% | 1015.3 hPa | 0 mm | - | 0 W/m² | - |
* Rain latest hour (hover to see other rain measurements)
** Current wind speed in m/s (hover to see current wind gust speed)